Showing default

NUSAT-48 (H. LEAVITT), 60498

Orbit data source: Space-Track

NUSAT-48 (H. LEAVITT), 60498 is a payload satellite owned by URUGUS S.A. (AR) in SSO that was launched on Fri, 16 Aug 2024 UTC via an FALCON 9 launch vehicle from the Air Force Western Test Range (AFWTR). Payload-class satellites include a variety of spacecraft equipped with specific instruments for various scientific and technological missions. These include communications satellites like Starlink; space stations such as the ISS; scientific satellites like the Hubble; Earth observation satellites from companies like Planet Labs, Umbra, and HawkEye 360; GPS; miniature CubeSats for education and research; and military/defense satellites.

Loading next visibility...
Identifier
60498, 2024-149AG
Orbit
SSO
Country
Flag of UnknownUnknown / ARGN
Related business
Manufacturer
URUGUS S.A.
Mission
Operational Commercial Imaging
Bus & Motor
NEWSAT V, Unknown motor
Mass
41.5 kg wet, 38.5 kg dry
Launch date (UTC)
2024-08-16 (1 year ago)
Launch vehicle
FALCON 9
Launch site
Air Force Western Test Range (AFWTR)
Object type
Payload
Rocket body
Debris
Shape & HBR
Box, 0.4 m
Radar Cross Section
0.542 m², Medium (>0.1 m² and < 1m²)

Expand to show TLE details & history
Last TLE update: 9 hours ago

TLE from 9 hours ago
0 NUSAT-48 (H. LEAVITT)
1 60498U 24149AG  25258.52444993  .00013401  00000-0  46466-3 0  9997
2 60498  97.3998 336.1747 0005479 162.8161 197.3266 15.29922571 60132
Epoch: 2025-09-15T12:35Z
TLE epoch observation values (Epoch: 2025-09-15T12:35:12.473Z)
Latitude
-0.00005°
Longitude
152.64487°
Altitude
482.733 km
Speed
7.622 km/s
True Right ascension
22h 24m 41s
True Declination
0° 00' 00"
Sunlit
Object was in full shadow at epoch
Visualization orbit readout
Latitude
Unknown
Longitude
Unknown
Altitude
Unknown
Speed
Unknown
Apparent Right ascension
Unknown
Apparent Declination
Unknown
Sunlit
N/A
Visualization observer readout
Local Sidereal Time
14:13:21
Azimuth
Unknown
Elevation
Unknown
Doppler factor
Unknown
Orbital elements
Apogee altitude
476.75 km
Perigee altitude
469.242 km
Semi-major axis
6,851.133 km
Eccentricity
0.00055
Inclination
97.3998°
RAAN
336.1747°
Arg. of periapsis
162.8161°
True anomaly
197.30791°
Mean anomaly
197.3266°
Eccentric anomaly
197.31726°
Mean motion
3.82736 °/min
Orbital period
94.06 mins
BSTAR
0.00046466
Loading maneuver chart data...
Computing Atmospheric mass density...
Loading historical data...
Loading historical data...
Loading historical data...
Loading historical data...
Loading historical data...
Loading historical data...
Loading historical data...

Documentation

Showing up to 5 results
|